[[{"header":{"parameterUnit":"m.s-1","parameterCategory":1,"la1":30.2991,"la2":30.254,"lo1":-89.0895,"lo2":-89.0444,"dy":0.0017,"dx":0.0017,"nx":28,"ny":28,"refTime":"2025-07-28T21:00:00:Z","depth":0,"parameterNumber":2,"parameterNumberName":"U-component_of_WINDS"},"data":[0,0,0,0,0,0,0,0,0,0,0,0,0,0,0,0,0,0,0,0,0,0,0,0,0,0,0,0,0,0,0,0,0,0,0,0,0,0,0,0,0,0,0,0,0,0,0,0,0,0,0,0,0,0,0,0,0,0,0.5902,0.5901,0,0.5854,0.5853,0.5853,0.5764,0.5762,0.576,0.5758,0.5715,0.5715,0.5716,0,0,0,0,0,0,0,0,0,0,0,0,0,0.5923,0.5923,0.5902,0.5901,0.5901,0.5854,0.5853,0.5853,0.5764,0.5762,0.576,0.5758,0.5715,0.5715,0.5716,0,0,0,0,0,0,0,0,0,0,0,0,0,0.5899,0.5923,0.5902,0.5851,0.5845,0.5854,0.5853,0.5853,0.5764,0.5762,0.5759,0.5757,0.5715,0.5715,0.5716,0.5772,0,0,0.5718,0.5718,0,0,0,0,0,0,0,0,0.59,0.5898,0.5859,0.5854,0.5848,0.5812,0.5845,0.5826,0.5765,0.5795,0.5758,0.5755,0.575,0.5747,0.5744,0.577,0.5769,0.5718,0.5718,0.5719,0.5719,0,0,0,0,0,0,0,0.5902,0.59,0.5883,0.5858,0.5852,0.5832,0.5826,0.5841,0.5788,0.5793,0.5786,0.5781,0.5746,0.5744,0.5743,0.5768,0.5718,0.5719,0.5719,0.5719,0.5842,0.5845,0,0,0,0,0,0,0.591,0.5902,0.5885,0.5882,0.5868,0.5834,0.5827,0.5826,0.5787,0.5779,0.5783,0.5777,0.5744,0.5742,0.5741,0.5807,0.5719,0.5719,0.572,0.584,0.5843,0.5846,0,0,0,0,0,0,0.5911,0.591,0.5887,0.589,0.5885,0.5836,0.5837,0.5827,0.5824,0.578,0.5771,0.579,0.5742,0.574,0.5766,0.5804,0.572,0.572,0.5836,0.5841,0.5845,0.5939,0,0,0,0,0,0,0.5912,0.5911,0.593,0.5891,0.5885,0.5911,0.5839,0.5828,0.5825,0.5816,0.5784,0.5777,0.574,0.5765,0.5767,0.5804,0.5721,0.5833,0.5838,0.5843,0.5933,0.5946,0.5958,0,0,0,0,0,0.5913,0.5959,0.5931,0.593,0.5908,0.5913,0.591,0.5865,0.5828,0.5849,0.5821,0.5778,0.5799,0.5769,0.5769,0.5807,0.583,0.5837,0.5843,0.5927,0.5944,0.5958,0,0,0,0,0,0,0.6005,0.5953,0.5921,0.5955,0.5939,0.5898,0.5922,0.5884,0.5879,0.5871,0.5817,0.5811,0.5845,0.5828,0.5795,0.5862,0.5808,0.5815,0.5872,0.5887,0.59,0.5904,0.5721,0,0,0,0,0,0.6028,0.6035,0.5989,0.6024,0.6017,0.5971,0.5972,0.5938,0.592,0.5913,0.5887,0.5873,0.5877,0.5881,0.5882,0.5929,0.5923,0.5956,0.5969,0.5979,0.5987,0.6015,0.603,0.5867,0.5867,0.5867,0,0,0.6078,0.6051,0.6058,0.6042,0.6025,0.6036,0.5966,0.5979,0.5987,0.5916,0.5939,0.592,0.5901,0.5939,0.5954,0.5926,0.603,0.5988,0.5996,0.5998,0.6023,0.6038,0.6052,0.5871,0.5871,0.587,0,0,0.6175,0.6153,0.6181,0.6166,0.6142,0.6111,0.6118,0.6083,0.6067,0.6089,0.6037,0.6047,0.6054,0.6043,0.6039,0.6134,0.6095,0.6136,0.6204,0.6231,0.6244,0.6255,0.6293,0.6306,0.6143,0.6143,0.6143,0,0.6241,0.6252,0.62,0.6217,0.6214,0.6148,0.6178,0.6166,0.6145,0.6145,0.6113,0.6122,0.6104,0.6141,0.6164,0.6161,0.617,0.614,0.6246,0.6257,0.6266,0.6302,0.6315,0.6149,0.6148,0.6147,0.6147,0,0.6336,0.6345,0.637,0.635,0.6349,0.6372,0.6327,0.6332,0.63,0.6274,0.6299,0.6275,0.6272,0.6278,0.6246,0.6311,0.6295,0.6255,0.62,0.6288,0.6321,0.6333,0.6156,0.6154,0.6153,0.6151,0,0,0.6489,0.644,0.6451,0.6443,0.6412,0.6419,0.6441,0.6437,0.6444,0.6431,0.6451,0.6459,0.6423,0.6419,0.6385,0.6409,0.6491,0.6367,0.6366,0.6394,0.6565,0.6597,0.6614,0.6464,0.6466,0.6468,0.6568,0,0.6581,0.6614,0.6569,0.6613,0.6623,0.6562,0.6582,0.6567,0.6544,0.6551,0.6525,0.6533,0.6483,0.6481,0.6501,0.6477,0.6525,0.6468,0.6485,0.6486,0.6494,0.663,0.6663,0.6758,0.658,0.6582,0.6583,0,0.6693,0.6686,0.6731,0.67,0.6702,0.6721,0.6715,0.6721,0.6704,0.6685,0.6681,0.6642,0.6664,0.6609,0.6641,0.6604,0.6608,0.6597,0.66,0.6602,0.6542,0.6639,0.6787,0.6803,0.6602,0.6601,0.6599,0,0.6804,0.6806,0.6834,0.6828,0.6792,0.6807,0.6793,0.6773,0.6774,0.6769,0.677,0.6769,0.6769,0.677,0.6732,0.6695,0.6771,0.6712,0.6759,0.6761,0.678,0.678,0.6935,0.6778,0.6777,0.6777,0.6777,0,0.6914,0.6945,0.6884,0.6901,0.6935,0.6885,0.6921,0.6901,0.6884,0.6899,0.6846,0.6861,0.6809,0.682,0.679,0.6824,0.6823,0.6812,0.6804,0.6818,0.682,0.6822,0.6816,0.6781,0.678,0.6779,0.6779,0,0.7045,0.7004,0.7032,0.6995,0.6987,0.7015,0.6985,0.7001,0.6974,0.6994,0.6996,0.6955,0.6966,0.6927,0.6931,0.6912,0.6962,0.6942,0.6968,0.6963,0.7014,0.7011,0.7178,0.7199,0.7026,0.7028,0.7029,0,0.7119,0.7141,0.7108,0.7113,0.7102,0.7111,0.7112,0.7064,0.7068,0.7052,0.7071,0.7077,0.7079,0.7099,0.7071,0.7075,0.7057,0.7115,0.7057,0.7072,0.7062,0.7062,0.7066,0.7128,0.713,0.7132,0.7133,0,0.7255,0.7235,0.7237,0.7234,0.7237,0.7232,0.7224,0.7232,0.7181,0.7188,0.7198,0.72,0.7204,0.7212,0.721,0.7198,0.7159,0.7151,0.7163,0.7179,0.7195,0.7191,0.7004,0.7148,0.7147,0.7146,0.7145,0.7144,0.7362,0.7381,0.7361,0.7367,0.7355,0.735,0.7364,0.7339,0.7346,0.7345,0.7317,0.7333,0.7318,0.7311,0.7304,0.7318,0.7291,0.7307,0.7312,0.7318,0.7328,0.719,0.7317,0.7316,0.7316,0.7315,0.7315,0,0.7499,0.7484,0.7489,0.748,0.7485,0.7445,0.7435,0.7443,0.7458,0.7446,0.745,0.7463,0.7471,0.7444,0.7448,0.7465,0.7448,0.7468,0.7468,0.7467,0.735,0.7341,0.7483,0.7483,0.7483,0.7482,0.7482,0.7482,0.7571,0.7602,0.7579,0.7605,0.7589,0.7604,0.7602,0.7598,0.7589,0.7605,0.7611,0.7593,0.7577,0.758,0.7587,0.7579,0.7585,0.7613,0.7599,0.7491,0.7475,0.7459,0.7451,0.7613,0.7613,0.7715,0.7716,0.7717]},{"header":{"parameterUnit":"m.s-1","parameterCategory":1,"la1":30.2991,"la2":30.254,"lo1":-89.0895,"lo2":-89.0444,"dy":0.0017,"dx":0.0017,"nx":28,"ny":28,"refTime":"2025-07-28T21:00:00:Z","depth":0,"parameterNumber":3,"parameterNumberName":"V-component_of_WINDS"},"data":[0,0,0,0,0,0,0,0,0,0,0,0,0,0,0,0,0,0,0,0,0,0,0,0,0,0,0,0,0,0,0,0,0,0,0,0,0,0,0,0,0,0,0,0,0,0,0,0,0,0,0,0,0,0,0,0,0,0,-2.4562,-2.456,0,-2.4439,-2.4437,-2.4436,-2.4438,-2.444,-2.4441,-2.4443,-2.4311,-2.4306,-2.4301,0,0,0,0,0,0,0,0,0,0,0,0,0,-2.4795,-2.4791,-2.4562,-2.456,-2.4559,-2.4439,-2.4437,-2.4435,-2.4438,-2.444,-2.4442,-2.4444,-2.4313,-2.4307,-2.4301,0,0,0,0,0,0,0,0,0,0,0,0,0,-2.4685,-2.479,-2.4562,-2.4545,-2.4543,-2.4439,-2.4437,-2.4435,-2.4437,-2.444,-2.4442,-2.4445,-2.4315,-2.4308,-2.43,-2.4203,0,0,-2.4277,-2.4274,0,0,0,0,0,0,0,0,-2.4691,-2.4676,-2.4549,-2.4546,-2.4543,-2.4456,-2.4471,-2.4357,-2.4437,-2.4477,-2.4443,-2.4446,-2.4357,-2.4346,-2.4318,-2.4197,-2.4191,-2.4276,-2.4272,-2.4268,-2.4266,0,0,0,0,0,0,0,-2.4699,-2.4682,-2.4513,-2.4548,-2.4544,-2.4543,-2.453,-2.445,-2.4404,-2.4474,-2.4474,-2.4459,-2.4356,-2.4325,-2.4314,-2.4189,-2.4277,-2.427,-2.4265,-2.4262,-2.3986,-2.3984,0,0,0,0,0,0,-2.4711,-2.4688,-2.4517,-2.4509,-2.4625,-2.4537,-2.4523,-2.4482,-2.4405,-2.4396,-2.4457,-2.446,-2.4337,-2.4323,-2.431,-2.4193,-2.4269,-2.4261,-2.4257,-2.3989,-2.3986,-2.3983,0,0,0,0,0,0,-2.4716,-2.4695,-2.4522,-2.4599,-2.4577,-2.453,-2.4484,-2.4478,-2.4447,-2.4393,-2.4385,-2.4434,-2.4338,-2.4321,-2.4231,-2.4188,-2.4258,-2.4251,-2.3992,-2.3988,-2.3984,-2.3958,0,0,0,0,0,0,-2.4722,-2.4697,-2.466,-2.4598,-2.4572,-2.4445,-2.4482,-2.4474,-2.4434,-2.4437,-2.4369,-2.436,-2.4339,-2.4242,-2.4223,-2.4179,-2.4245,-2.3996,-2.399,-2.3985,-2.3962,-2.3953,-2.3945,0,0,0,0,0,-2.4731,-2.4656,-2.4658,-2.4638,-2.4526,-2.4443,-2.4428,-2.4407,-2.4431,-2.4393,-2.4359,-2.4362,-2.4197,-2.4233,-2.4212,-2.4165,-2.3998,-2.3992,-2.3986,-2.3966,-2.3955,-2.3946,0,0,0,0,0,0,-2.4711,-2.4647,-2.4649,-2.4552,-2.4503,-2.4443,-2.4395,-2.4395,-2.4337,-2.4341,-2.4315,-2.43,-2.4211,-2.4179,-2.422,-2.4068,-2.41,-2.4089,-2.4092,-2.4081,-2.4073,-2.4083,-2.4239,0,0,0,0,0,-2.4696,-2.4636,-2.4583,-2.4502,-2.4478,-2.4441,-2.4404,-2.4392,-2.4339,-2.4318,-2.4277,-2.4225,-2.4162,-2.412,-2.4058,-2.3958,-2.3944,-2.3915,-2.3907,-2.3901,-2.3891,-2.3838,-2.3825,-2.3962,-2.3962,-2.3962,0,0,-2.4663,-2.4621,-2.4584,-2.4497,-2.4458,-2.4395,-2.4423,-2.4355,-2.4308,-2.4307,-2.4221,-2.4189,-2.4129,-2.4035,-2.3991,-2.4005,-2.3851,-2.3893,-2.3888,-2.3882,-2.383,-2.3818,-2.3806,-2.3958,-2.3959,-2.3959,0,0,-2.4572,-2.4533,-2.4463,-2.4425,-2.4366,-2.4343,-2.4326,-2.4267,-2.4247,-2.4161,-2.4159,-2.4103,-2.3993,-2.3952,-2.3916,-2.3813,-2.3814,-2.3793,-2.3749,-2.3698,-2.3687,-2.3678,-2.3642,-2.3629,-2.3785,-2.3784,-2.3784,0,-2.4537,-2.4445,-2.4427,-2.4359,-2.4322,-2.4322,-2.4251,-2.4213,-2.4136,-2.411,-2.4128,-2.3993,-2.3952,-2.3849,-2.3825,-2.3795,-2.3776,-2.38,-2.3691,-2.3681,-2.3671,-2.3637,-2.3624,-2.3782,-2.3783,-2.3783,-2.3783,0,-2.4406,-2.4342,-2.4292,-2.4222,-2.4179,-2.411,-2.4081,-2.4039,-2.4032,-2.4007,-2.392,-2.3872,-2.3802,-2.3777,-2.3767,-2.3673,-2.3684,-2.3696,-2.3728,-2.3657,-2.3624,-2.3611,-2.3779,-2.378,-2.3781,-2.3781,0,0,-2.4296,-2.422,-2.4202,-2.4171,-2.4108,-2.4058,-2.399,-2.3924,-2.3889,-2.3837,-2.3779,-2.3689,-2.3701,-2.3661,-2.3647,-2.3602,-2.3526,-2.3621,-2.3619,-2.3605,-2.342,-2.3411,-2.3396,-2.3527,-2.3524,-2.3522,-2.3425,0,-2.4198,-2.4079,-2.4063,-2.3956,-2.3898,-2.3899,-2.3839,-2.3794,-2.377,-2.3715,-2.3688,-2.3624,-2.3645,-2.3621,-2.3577,-2.3545,-2.3488,-2.3551,-2.3472,-2.347,-2.3487,-2.3379,-2.3368,-2.3279,-2.3412,-2.341,-2.3409,0,-2.4067,-2.4016,-2.3905,-2.3854,-2.3828,-2.3775,-2.3715,-2.3663,-2.3613,-2.3598,-2.3556,-2.3549,-2.3478,-2.3514,-2.3416,-2.346,-2.3427,-2.3407,-2.3403,-2.3394,-2.3435,-2.3367,-2.325,-2.3237,-2.3388,-2.339,-2.3391,0,-2.3999,-2.3901,-2.3823,-2.3797,-2.3735,-2.3698,-2.367,-2.3622,-2.3585,-2.3532,-2.3507,-2.3446,-2.3412,-2.3365,-2.3342,-2.337,-2.3246,-2.3279,-2.3232,-2.3233,-2.3205,-2.3207,-2.3081,-2.3184,-2.3184,-2.3184,-2.3184,0,-2.3892,-2.3824,-2.3793,-2.3744,-2.3669,-2.3651,-2.3577,-2.355,-2.3508,-2.3455,-2.3451,-2.34,-2.3373,-2.3319,-2.33,-2.3223,-2.3207,-2.3194,-2.3189,-2.3194,-2.3196,-2.3171,-2.3177,-2.318,-2.3181,-2.3182,-2.3183,0,-2.3802,-2.3778,-2.3693,-2.3643,-2.3629,-2.3576,-2.3532,-2.3485,-2.3463,-2.3395,-2.3378,-2.3342,-2.3278,-2.3251,-2.3171,-2.3159,-2.3071,-2.3071,-2.3089,-2.3088,-2.3042,-2.3047,-2.2896,-2.2875,-2.2992,-2.299,-2.299,0,-2.3735,-2.3683,-2.3629,-2.3594,-2.3566,-2.3509,-2.3473,-2.3453,-2.3415,-2.3356,-2.3316,-2.3253,-2.3201,-2.3099,-2.3065,-2.3005,-2.3004,-2.2955,-2.2994,-2.3002,-2.3004,-2.3008,-2.3003,-2.2947,-2.2946,-2.2945,-2.2945,0,-2.3618,-2.361,-2.3558,-2.3503,-2.3459,-2.3414,-2.3369,-2.3341,-2.3315,-2.3272,-2.3208,-2.3168,-2.309,-2.3027,-2.2966,-2.2936,-2.2936,-2.2933,-2.2919,-2.2923,-2.2936,-2.2929,-2.307,-2.2936,-2.2937,-2.2938,-2.2938,-2.2938,-2.3538,-2.3494,-2.345,-2.3392,-2.3358,-2.3318,-2.3272,-2.3246,-2.3193,-2.3129,-2.3121,-2.3053,-2.3006,-2.2924,-2.2892,-2.2839,-2.2851,-2.283,-2.2825,-2.282,-2.2818,-2.2945,-2.2827,-2.2827,-2.2828,-2.2828,-2.2828,0,-2.3422,-2.3395,-2.3343,-2.3283,-2.3238,-2.3246,-2.3198,-2.316,-2.3101,-2.3058,-2.3009,-2.2937,-2.2877,-2.284,-2.278,-2.2744,-2.2743,-2.2729,-2.2731,-2.2725,-2.281,-2.2828,-2.2731,-2.2731,-2.2731,-2.2731,-2.2731,-2.2731,-2.3357,-2.3283,-2.327,-2.318,-2.3153,-2.3088,-2.3061,-2.3023,-2.299,-2.2911,-2.2862,-2.2839,-2.2799,-2.2737,-2.2683,-2.2673,-2.2652,-2.2637,-2.2628,-2.2708,-2.2718,-2.2728,-2.2745,-2.2632,-2.2632,-2.2548,-2.2547,-2.2547]}]]